[[{"header":{"parameterUnit":"m.s-1","parameterCategory":1,"la1":30.2991,"la2":30.254,"lo1":-89.0895,"lo2":-89.0444,"dy":0.0017,"dx":0.0017,"nx":28,"ny":28,"refTime":"2024-10-19T21:00:00:Z","depth":0,"parameterNumber":2,"parameterNumberName":"U-component_of_WINDS"},"data":[0,0,0,0,0,0,0,0,0,0,0,0,0,0,0,0,0,0,0,0,0,0,0,0,0,0,0,0,0,0,0,0,0,0,0,0,0,0,0,0,0,0,0,0,0,0,0,0,0,0,0,0,0,0,0,0,0,0,-1.8798,-1.8797,0,-1.8772,-1.8771,-1.8771,-1.8726,-1.8725,-1.8724,-1.8723,-1.8699,-1.8699,-1.8699,0,0,0,0,0,0,0,0,0,0,0,0,0,-1.8812,-1.8812,-1.8798,-1.8797,-1.8797,-1.8772,-1.8771,-1.8771,-1.8726,-1.8725,-1.8724,-1.8723,-1.8699,-1.8699,-1.8699,0,0,0,0,0,0,0,0,0,0,0,0,0,-1.8798,-1.8812,-1.8798,-1.8772,-1.8769,-1.8772,-1.8771,-1.8771,-1.8726,-1.8725,-1.8724,-1.8722,-1.8698,-1.8699,-1.8699,-1.8726,0,0,-1.87,-1.87,0,0,0,0,0,0,0,0,-1.8799,-1.8797,-1.8776,-1.8773,-1.877,-1.8751,-1.8767,-1.8756,-1.8727,-1.8742,-1.8723,-1.8722,-1.8717,-1.8716,-1.8714,-1.8725,-1.8724,-1.87,-1.87,-1.87,-1.87,0,0,0,0,0,0,0,-1.88,-1.8798,-1.8787,-1.8775,-1.8772,-1.8762,-1.8759,-1.8765,-1.8737,-1.8741,-1.8738,-1.8735,-1.8715,-1.8714,-1.8713,-1.8723,-1.87,-1.87,-1.87,-1.87,-1.876,-1.8761,0,0,0,0,0,0,-1.8804,-1.8799,-1.8788,-1.8787,-1.8782,-1.8763,-1.8759,-1.8758,-1.8737,-1.8733,-1.8736,-1.8733,-1.8714,-1.8713,-1.8712,-1.8745,-1.87,-1.87,-1.87,-1.8758,-1.876,-1.8762,0,0,0,0,0,0,-1.8805,-1.8804,-1.8789,-1.8792,-1.879,-1.8764,-1.8764,-1.8759,-1.8757,-1.8734,-1.8729,-1.8739,-1.8713,-1.8711,-1.8724,-1.8744,-1.87,-1.87,-1.8756,-1.8759,-1.8761,-1.8811,0,0,0,0,0,0,-1.8805,-1.8804,-1.8813,-1.8793,-1.879,-1.8801,-1.8765,-1.8759,-1.8757,-1.8753,-1.8735,-1.8731,-1.8712,-1.8724,-1.8724,-1.8743,-1.87,-1.8755,-1.8757,-1.876,-1.8807,-1.8814,-1.882,0,0,0,0,0,-1.8806,-1.8828,-1.8814,-1.8813,-1.88,-1.8802,-1.88,-1.8777,-1.8759,-1.8769,-1.8754,-1.8732,-1.8741,-1.8725,-1.8725,-1.8745,-1.8753,-1.8757,-1.876,-1.8804,-1.8813,-1.882,0,0,0,0,0,0,-1.8851,-1.8825,-1.8809,-1.8824,-1.8816,-1.8794,-1.8806,-1.8786,-1.8783,-1.8779,-1.8751,-1.8748,-1.8764,-1.8755,-1.8738,-1.8772,-1.8744,-1.8747,-1.8777,-1.8786,-1.8792,-1.8795,-1.8701,0,0,0,0,0,-1.8863,-1.8866,-1.8842,-1.8859,-1.8855,-1.8831,-1.8831,-1.8814,-1.8804,-1.8801,-1.8787,-1.8779,-1.8781,-1.8782,-1.8782,-1.8805,-1.8802,-1.8819,-1.8825,-1.8831,-1.8835,-1.885,-1.8858,-1.8772,-1.8772,-1.8772,0,0,-1.8888,-1.8873,-1.8877,-1.8867,-1.8859,-1.8864,-1.8829,-1.8834,-1.8839,-1.8802,-1.8813,-1.8803,-1.8792,-1.8811,-1.8819,-1.8804,-1.8858,-1.8835,-1.8839,-1.8841,-1.8855,-1.8863,-1.887,-1.8775,-1.8774,-1.8774,0,0,-1.8936,-1.8924,-1.8938,-1.893,-1.8917,-1.8902,-1.8905,-1.8887,-1.8879,-1.889,-1.8863,-1.8868,-1.887,-1.8865,-1.8862,-1.8911,-1.8892,-1.8911,-1.8947,-1.8962,-1.8969,-1.8975,-1.8996,-1.9004,-1.8915,-1.8915,-1.8915,0,-1.8968,-1.8974,-1.8947,-1.8956,-1.8954,-1.892,-1.8936,-1.893,-1.8918,-1.8918,-1.8902,-1.8906,-1.8896,-1.8915,-1.8927,-1.8925,-1.8931,-1.8914,-1.897,-1.8976,-1.8981,-1.9001,-1.9008,-1.8918,-1.8918,-1.8917,-1.8917,0,-1.9016,-1.9021,-1.9033,-1.9024,-1.9023,-1.9035,-1.9012,-1.9014,-1.8998,-1.8985,-1.8998,-1.8985,-1.8984,-1.8986,-1.8969,-1.9004,-1.8996,-1.8975,-1.8947,-1.8993,-1.9011,-1.9018,-1.8922,-1.8921,-1.892,-1.892,0,0,-1.9092,-1.9069,-1.9074,-1.9071,-1.9056,-1.9059,-1.9071,-1.9069,-1.9073,-1.9066,-1.9078,-1.9081,-1.9063,-1.906,-1.9043,-1.9056,-1.91,-1.9034,-1.9033,-1.905,-1.9141,-1.916,-1.9168,-1.9086,-1.9087,-1.9088,-1.9144,0,-1.914,-1.9157,-1.9135,-1.9159,-1.9164,-1.9133,-1.9144,-1.9137,-1.9125,-1.9129,-1.9116,-1.9121,-1.9094,-1.9093,-1.9104,-1.9092,-1.9119,-1.9087,-1.9099,-1.91,-1.9106,-1.9177,-1.9196,-1.9249,-1.915,-1.9151,-1.9152,0,-1.9197,-1.9194,-1.9219,-1.9204,-1.9206,-1.9216,-1.9214,-1.9217,-1.921,-1.92,-1.9199,-1.9178,-1.9191,-1.9162,-1.918,-1.916,-1.9163,-1.9158,-1.916,-1.9162,-1.9131,-1.9185,-1.9264,-1.9274,-1.9162,-1.9161,-1.9161,0,-1.9255,-1.9257,-1.9272,-1.927,-1.9253,-1.9261,-1.9254,-1.9245,-1.9246,-1.9245,-1.9246,-1.9246,-1.9247,-1.9249,-1.923,-1.921,-1.9252,-1.9221,-1.9248,-1.9249,-1.926,-1.926,-1.9345,-1.9257,-1.9257,-1.9257,-1.9256,0,-1.9312,-1.9329,-1.9299,-1.9309,-1.9328,-1.9302,-1.9322,-1.9312,-1.9305,-1.9314,-1.9286,-1.9296,-1.9269,-1.9276,-1.9261,-1.9281,-1.9281,-1.9276,-1.9273,-1.928,-1.9282,-1.9284,-1.9281,-1.9259,-1.9258,-1.9258,-1.9257,0,-1.9381,-1.936,-1.9376,-1.9359,-1.9355,-1.9371,-1.9357,-1.9367,-1.9353,-1.9365,-1.9367,-1.9347,-1.9354,-1.9335,-1.9339,-1.9329,-1.9359,-1.9348,-1.9362,-1.936,-1.939,-1.9389,-1.9482,-1.9494,-1.9395,-1.9396,-1.9397,0,-1.942,-1.9432,-1.9417,-1.9421,-1.9416,-1.9423,-1.9424,-1.94,-1.9403,-1.9397,-1.9408,-1.9413,-1.9416,-1.943,-1.9417,-1.9421,-1.9412,-1.9444,-1.9412,-1.9421,-1.9417,-1.9418,-1.9421,-1.9452,-1.9453,-1.9454,-1.9455,0,-1.9493,-1.9483,-1.9486,-1.9486,-1.9489,-1.9489,-1.9486,-1.9491,-1.9465,-1.9471,-1.9478,-1.9481,-1.9486,-1.9493,-1.9494,-1.9489,-1.9469,-1.9464,-1.9472,-1.9482,-1.9491,-1.949,-1.9384,-1.9463,-1.9462,-1.9461,-1.9461,-1.9461,-1.955,-1.9561,-1.9553,-1.9559,-1.9554,-1.9553,-1.9563,-1.9551,-1.9556,-1.9559,-1.9544,-1.9556,-1.955,-1.955,-1.9547,-1.9557,-1.9543,-1.9552,-1.9555,-1.9559,-1.9566,-1.9487,-1.9557,-1.9557,-1.9556,-1.9556,-1.9556,0,-1.9625,-1.9619,-1.9623,-1.9622,-1.9627,-1.9606,-1.9602,-1.9609,-1.9619,-1.9615,-1.9619,-1.9629,-1.9636,-1.9624,-1.963,-1.9641,-1.9632,-1.9643,-1.9644,-1.9644,-1.9576,-1.9571,-1.965,-1.965,-1.965,-1.965,-1.965,-1.965,-1.9665,-1.9684,-1.9673,-1.9691,-1.9684,-1.9695,-1.9696,-1.9696,-1.9693,-1.9706,-1.9711,-1.9703,-1.9697,-1.9702,-1.9709,-1.9705,-1.971,-1.9726,-1.972,-1.9657,-1.9648,-1.9639,-1.9635,-1.9726,-1.9726,-1.9787,-1.9787,-1.9788]},{"header":{"parameterUnit":"m.s-1","parameterCategory":1,"la1":30.2991,"la2":30.254,"lo1":-89.0895,"lo2":-89.0444,"dy":0.0017,"dx":0.0017,"nx":28,"ny":28,"refTime":"2024-10-19T21:00:00:Z","depth":0,"parameterNumber":3,"parameterNumberName":"V-component_of_WINDS"},"data":[0,0,0,0,0,0,0,0,0,0,0,0,0,0,0,0,0,0,0,0,0,0,0,0,0,0,0,0,0,0,0,0,0,0,0,0,0,0,0,0,0,0,0,0,0,0,0,0,0,0,0,0,0,0,0,0,0,0,0.1339,0.1339,0,0.1337,0.1337,0.1337,0.1335,0.1335,0.1335,0.1335,0.1331,0.1331,0.1331,0,0,0,0,0,0,0,0,0,0,0,0,0,0.1338,0.1338,0.1339,0.1339,0.1339,0.1337,0.1337,0.1337,0.1335,0.1335,0.1335,0.1335,0.1331,0.1331,0.1331,0,0,0,0,0,0,0,0,0,0,0,0,0,0.1338,0.1338,0.1339,0.1338,0.1338,0.1337,0.1337,0.1337,0.1335,0.1335,0.1335,0.1335,0.1331,0.1331,0.1331,0.1331,0,0,0.1331,0.133,0,0,0,0,0,0,0,0,0.1338,0.1338,0.1338,0.1338,0.1338,0.1337,0.1336,0.1335,0.1335,0.1336,0.1335,0.1335,0.1333,0.1333,0.1332,0.1331,0.1331,0.1331,0.133,0.133,0.133,0,0,0,0,0,0,0,0.1338,0.1338,0.1339,0.1338,0.1338,0.1337,0.1336,0.1335,0.1335,0.1336,0.1336,0.1336,0.1333,0.1332,0.1332,0.1331,0.1331,0.133,0.133,0.133,0.1326,0.1326,0,0,0,0,0,0,0.1338,0.1338,0.1339,0.1339,0.1338,0.1337,0.1337,0.1337,0.1335,0.1334,0.1336,0.1336,0.1333,0.1332,0.1332,0.133,0.133,0.133,0.133,0.1326,0.1326,0.1326,0,0,0,0,0,0,0.1338,0.1339,0.1339,0.1338,0.1338,0.1337,0.1337,0.1337,0.1337,0.1335,0.1334,0.1336,0.1333,0.1332,0.1331,0.133,0.133,0.133,0.1326,0.1326,0.1326,0.1328,0,0,0,0,0,0,0.1338,0.1339,0.1339,0.1338,0.1338,0.1339,0.1337,0.1337,0.1337,0.1337,0.1334,0.1334,0.1332,0.1331,0.1331,0.133,0.133,0.1327,0.1326,0.1326,0.1328,0.1328,0.1328,0,0,0,0,0,0.1338,0.134,0.134,0.134,0.1339,0.1339,0.1339,0.1337,0.1337,0.1337,0.1335,0.1334,0.133,0.1331,0.1331,0.133,0.1327,0.1326,0.1326,0.1328,0.1328,0.1328,0,0,0,0,0,0,0.1341,0.134,0.1339,0.1341,0.134,0.1338,0.1339,0.1338,0.1337,0.1336,0.1334,0.1334,0.1332,0.1331,0.1331,0.1329,0.1328,0.1328,0.133,0.133,0.133,0.133,0.133,0,0,0,0,0,0.1342,0.1342,0.1341,0.1342,0.1342,0.134,0.134,0.1339,0.1338,0.1337,0.1336,0.1334,0.1332,0.1331,0.1329,0.1328,0.1326,0.1327,0.1327,0.1327,0.1327,0.1324,0.1324,0.1326,0.1326,0.1326,0,0,0.1344,0.1343,0.1343,0.1343,0.1342,0.1341,0.134,0.134,0.1339,0.1337,0.1336,0.1334,0.1331,0.133,0.1329,0.1329,0.1326,0.1327,0.1327,0.1327,0.1324,0.1324,0.1324,0.1326,0.1326,0.1326,0,0,0.1346,0.1346,0.1347,0.1346,0.1344,0.1343,0.1343,0.1341,0.134,0.1339,0.1337,0.1335,0.1332,0.133,0.1329,0.1328,0.1326,0.1327,0.1328,0.1325,0.1325,0.1325,0.1323,0.1323,0.1327,0.1327,0.1327,0,0.1348,0.1348,0.1347,0.1346,0.1345,0.1344,0.1343,0.1342,0.134,0.1339,0.1338,0.1334,0.1332,0.1329,0.1329,0.1328,0.1327,0.1328,0.1325,0.1325,0.1325,0.1323,0.1323,0.1327,0.1327,0.1327,0.1327,0,0.135,0.135,0.135,0.1348,0.1347,0.1347,0.1344,0.1343,0.1342,0.134,0.1337,0.1335,0.1332,0.1331,0.133,0.1327,0.1327,0.1326,0.1325,0.1325,0.1323,0.1323,0.1327,0.1327,0.1327,0.1327,0,0,0.1355,0.1352,0.1352,0.135,0.1347,0.1347,0.1345,0.1342,0.1341,0.1339,0.1337,0.1334,0.1332,0.133,0.1329,0.1327,0.1324,0.1326,0.1326,0.1325,0.1319,0.1319,0.1319,0.1323,0.1323,0.1323,0.1319,0,0.1357,0.1355,0.1353,0.1351,0.135,0.1347,0.1345,0.1343,0.1341,0.1338,0.1335,0.1333,0.1332,0.1331,0.1328,0.1325,0.1323,0.1325,0.132,0.1319,0.132,0.1318,0.1319,0.1316,0.1319,0.1318,0.1318,0,0.1358,0.1356,0.1355,0.1351,0.135,0.1349,0.1345,0.1343,0.134,0.1338,0.1335,0.1333,0.1329,0.1329,0.1323,0.1325,0.1322,0.132,0.132,0.1319,0.1319,0.1316,0.1315,0.1314,0.1318,0.1318,0.1318,0,0.1361,0.1358,0.1356,0.1355,0.135,0.1349,0.1347,0.1343,0.1341,0.1338,0.1336,0.1332,0.133,0.1326,0.1322,0.1322,0.1316,0.1316,0.1313,0.1313,0.1312,0.1312,0.1309,0.1311,0.1311,0.1311,0.1311,0,0.1362,0.1361,0.1357,0.1356,0.1353,0.135,0.1348,0.1345,0.1342,0.1339,0.1336,0.1333,0.1328,0.1324,0.1321,0.1316,0.1315,0.1313,0.1312,0.1313,0.1313,0.1311,0.131,0.1311,0.1311,0.1311,0.1311,0,0.1365,0.1362,0.136,0.1356,0.1354,0.1353,0.1348,0.1346,0.1343,0.1339,0.1338,0.1333,0.1328,0.1324,0.1317,0.1315,0.1309,0.1309,0.1311,0.131,0.1308,0.1307,0.1302,0.1301,0.1305,0.1305,0.1305,0,0.1366,0.1365,0.136,0.1358,0.1356,0.1353,0.1351,0.1347,0.1345,0.1339,0.1337,0.1332,0.1328,0.132,0.1315,0.1309,0.1307,0.1306,0.1307,0.1307,0.1306,0.1306,0.1305,0.1306,0.1306,0.1306,0.1306,0,0.1368,0.1366,0.1363,0.1359,0.1356,0.1353,0.135,0.1348,0.1343,0.134,0.1335,0.1332,0.1324,0.1319,0.1312,0.1309,0.1306,0.1306,0.1304,0.1305,0.1306,0.1304,0.131,0.1306,0.1306,0.1306,0.1306,0.1306,0.1369,0.1367,0.1363,0.1359,0.1356,0.1352,0.135,0.1346,0.1342,0.1336,0.1334,0.1328,0.1323,0.1314,0.131,0.1304,0.1304,0.1303,0.1302,0.1302,0.1301,0.1307,0.1303,0.1303,0.1303,0.1303,0.1303,0,0.1369,0.1366,0.1363,0.1358,0.1354,0.1353,0.1348,0.1345,0.134,0.1336,0.1331,0.1324,0.1318,0.1312,0.1305,0.1302,0.13,0.13,0.13,0.1299,0.1303,0.1304,0.1302,0.1302,0.1302,0.1302,0.1302,0.1302,0.1369,0.1366,0.1363,0.1357,0.1354,0.1349,0.1346,0.1342,0.1338,0.133,0.1325,0.1322,0.1316,0.1308,0.1302,0.13,0.1297,0.1297,0.1295,0.1299,0.1299,0.1299,0.13,0.1297,0.1297,0.1292,0.1292,0.1292]}]]